Tracking 29892 objects as of 21-Nov-2024
HD Live streaming from Space Station
objects crossing your sky now

STARLINK-32007

Track STARLINK-32007 now!
10-day predictions
STARLINK-32007 is classified as:


NORAD ID: 60094
Int'l Code: 2024-117D
Perigee: 481.8 km
Apogee: 482.9 km
Inclination: 53.2 °
Period: 94.1 minutes
Semi major axis: 6853 km
RCS: Unknown
Launch date: June 23, 2024
Source: United States (US)
Launch site: AIR FORCE EASTERN TEST RANGE (AFETR)
Your satellite tracking list
Your tracking list is empty




NASA's NSSDC Master Catalog

Two Line Element Set (TLE):
1 60094U 24117D   24324.58305959 -.00000335  00000-0  80750-6 0  9991
2 60094  53.1593  84.0841 0000804  96.2325 263.8767 15.30185624 24146
Source of the keplerian elements: AFSPC